Portada
METAR-TAF:

METAR-TAF

Aeroports :

Santa Marta, Colòmbia

latitud: 11-08N, longitud: 074-14W, altitud: 4 m

Observació

L'informe es va fer fa 50 minuts, a les 18:00 UTC
Vent 7 kt del Nord-Oest
Temperatura 33°C
Humitat 63%
Pressió 1012 hPa
Visibilitat 10 km o més
Núvols disperses a una alçada de 2000 ft, Cumulus congestus.
Núvols disperses a una alçada de 20000 ft

METAR: SKSM 211800Z 31007KT 9999 SCT020TCU SCT200 33/25 A2987 RMK TCU/E/S

Hora: 13:50 (18:50 UTC)


TAF: manca

Observacions i pronòstics meteorològics de més de 4000 aeroports (METAR i TAF).

Les estacions disponibles són els punts grocs i vermells al mapa.

Posi el ratolí al punt desitjat per veure el nom de l'estació.

Feu clic per veure les observacions i els pronòstics meteorològics.

Per canviar el mapa: feu clic els botons verds amb una creu de color negre per apropar; al botó verd amb un guió per allunyar la imatge; o en les fletxes verdes per a mapes adjacents.


METAR-TAF: